Home   Weather   Warren   Past weeks

Flag for USA Past Weather in Warren, Michigan, USA — Yesterday and Last 2 Weeks

Now
36 °F

Clear.


Feels Like: 36 °F
Forecast: 31 / 53 °F
Wind: No wind

Location: Detroit City Airport

Current Time: Apr 20, 2018 at 12:55:23 am

Latest Report: Apr 19, 2018 at 11:53 pm


Visibility: 10 mi

Pressure: 30.34 "Hg

Humidity: 62%

Dew Point: 24 °F

Location of WarrenLocation

Past Weather in Warren — Graph

°F

Warren Temperature Yesterday

Maximum temperature yesterday: 52 °F (at 3:53 pm)
Minimum temperature yesterday: 34 °F (at 6:53 am)
Average temperature yesterday: 40 °F

High & Low Weather Summary for the Past Weeks

 TemperatureHumidityPressure
High74 °F (Apr 12, 3:53 pm)100% (Apr 17, 4:53 pm)30.32 "Hg (Apr 17, 4:53 pm)
Low22 °F (Apr 8, 6:53 am)26% (Apr 19, 5:53 pm)29.56 "Hg (Apr 12, 1:53 pm)
Average37 °F70%29.95 "Hg
* Reported Apr 4 10:53 pm — Apr 19 10:53 pm, Warren. Weather by CustomWeather, © 2018

Note: Actual official high and low records may vary slightly from our data, if they occured in-between our weather recording intervals... More about our weather records

Advertising

Warren Weather History for the Previous 24 Hours

Scroll right to see more
 ConditionsComfort  
Time TempWeatherWind HumidityBarometerVisibility
10:53 pm
Thu, Apr 19
37 °FClear.No wind62%30.32 "Hg10 mi
9:53 pm37 °FClear.3 mph60%30.31 "Hg10 mi
8:53 pm38 °FClear.7 mph65%30.28 "Hg10 mi
7:53 pm41 °FSunny.9 mph60%30.24 "Hg10 mi
7:06 pm43 °FSunny.10 mph56%30.22 "Hg10 mi
5:53 pm52 °FSunny.16 mph26%30.19 "Hg10 mi
4:53 pm52 °FSunny.16 mph27%30.17 "Hg10 mi
3:53 pm52 °FSunny.14 mph30%30.15 "Hg10 mi
1:53 pm45 °FSunny.12 mph45%30.14 "Hg10 mi
12:53 pm45 °FSunny.14 mph45%30.14 "Hg10 mi
11:53 am39 °FScattered clouds.12 mph53%30.13 "Hg10 mi
10:53 am36 °FScattered clouds.9 mph64%30.11 "Hg10 mi
9:53 am36 °FScattered clouds.14 mph65%30.06 "Hg10 mi
6:53 am34 °FOvercast.9 mph75%29.97 "Hg10 mi
4:53 am34 °FOvercast.12 mph76%29.90 "Hg10 mi
3:53 am34 °FOvercast.10 mph76%29.87 "Hg10 mi
2:53 am34 °FOvercast.12 mph76%29.86 "Hg10 mi
1:53 am34 °FMostly cloudy.16 mph79%29.88 "Hg10 mi
12:53 am34 °FPartly cloudy.14 mph85%29.87 "Hg10 mi
Weather by CustomWeather, © 2018

See weather overview